Tracking 30160 objects as of 13-Feb-2025
HD Live streaming from Space Station
objects crossing your sky now

STARLINK-33584

Track STARLINK-33584 now!
10-day predictions
STARLINK-33584 is classified as:


NORAD ID: 62761
Int'l Code: 2025-015D
Perigee: 390.7 km
Apogee: 391.7 km
Inclination: 53.2 °
Period: 92.2 minutes
Semi major axis: 6762 km
RCS: Unknown
Launch date: January 21, 2025
Source: United States (US)
Launch site: AIR FORCE WESTERN TEST RANGE (AFWTR)
Your satellite tracking list
Your tracking list is empty




NASA's NSSDC Master Catalog

Two Line Element Set (TLE):
1 62761U 25015D   25043.91668981 -.01481548  00000-0 -19190-1 0  9991
2 62761  53.1601 335.8666 0000787  86.3415 276.2584 15.61245276  4799
Source of the keplerian elements: AFSPC